SL-16 DEB, 22354

Orbit data source: Space-Track

SL-16 DEB, 22354 is space debris in LEO originally from a launch on Fri, 25 Dec 1992 UTC launched from the Tyuratam Missile And Space Complex (TTMTR). Debris objects in space refer to the collection of defunct objects orbiting the Earth. Examples of debris include non-operational satellites, rocket bodies, and fragments generated from explosions, collisions, or faulty payload assembly.

Loading next visibility...
Identifier
22354, 1992-093AT
Orbit
LEO
Country
Flag of CISCIS
Related business
Manufacturer
Unknown
Mission
Spacecraft
Bus & Motor
Unknown
Mass
Unknown
Launch date (UTC)
1992-12-25 (33 years ago)
Launch vehicle
Unknown
Launch site
Tyuratam Missile And Space Complex (TTMTR)
Object type
Payload
Rocket body
Debris
Shape & HBR
Unknown shape, 0.7 m
Radar Cross Section
Medium (>0.1 m² and <1 m²)

Expand to show TLE details & history
Last TLE update: 10 hours ago

TLE from 10 hours ago
0 SL-16 DEB
1 22354U 92093AT  26132.82535022  .00000046  00000-0  64018-4 0  9993
2 22354  71.1455 260.5220 0144539 248.2428 187.3065 13.92999394693347
Epoch: 2026-05-12T19:48Z
TLE epoch observation values (Epoch: 2026-05-12T19:48:30.259Z)
Latitude
66.38122°
Longitude
143.78142°
Altitude
1,033.722 km
Speed
7.288 km/s
True Right ascension
20h 46m 00s
True Declination
66° 15' 34"
Sunlit
Object was in daylight at epoch
Visualization orbit readout
Latitude
Unknown
Longitude
Unknown
Altitude
Unknown
Speed
Unknown
Apparent Right ascension
Unknown
Apparent Declination
Unknown
Sunlit
N/A
Visualization observer readout
Local Sidereal Time
14:00:33
Azimuth
Unknown
Elevation
Unknown
Doppler factor
Unknown
Orbital elements
Apogee altitude
1,021.5 km
Perigee altitude
810.641 km
Semi-major axis
7,294.207 km
Eccentricity
0.01445
Inclination
71.1455°
RAAN
260.522°
Arg. of periapsis
248.2428°
True anomaly
187.09957°
Mean anomaly
187.3065°
Eccentric anomaly
187.20267°
Mean motion
3.48398 °/min
Orbital period
103.33 mins
BSTAR
0.000064018
Loading maneuver chart data...
Computing Atmospheric mass density...

Documentation

Showing up to 5 results
|